Weather History for Newark Heath, OH

Change the Weather History Date:

Thursday, March 7, 2013

  Actual Average Record
Temperature  
Mean Temperature 37 °F -  
Max Temperature 42 °F 47 °F 78 °F (1983)
Min Temperature 32 °F 28 °F 5 °F (1960)
Degree Days  
Heating Degree Days 28    
Moisture  
Dew Point 28 °F    
Average Humidity 73    
Maximum Humidity 82    
Minimum Humidity 60    
Precipitation  
Precipitation 0.00 in - - ()
Sea Level Pressure  
Sea Level Pressure 30.29 in    
Wind  
Wind Speed 6 mph (NW)    
Max Wind Speed 13 mph    
Max Gust Speed -    
Visibility 9 miles    
Events      
Averages and records for this station are not official NWS values.
T = Trace of Precipitation, MM = Missing Value Source: NWS Daily Summary

Daily Weather History Graph

Daily Weather History Graph

Search for Another Location

Airport:

Trip Planner

Search our weather history database for the weather conditions in past years. The results will help you decide how hot, cold, wet, or windy it might be!

Date:

Astronomy

Mar. 07, 2013 Rise Set
Actual Time 6:53 AM EST 6:28 PM EST
Civil Twilight 6:26 AM EST 6:55 PM EST
Nautical Twilight 5:55 AM EST 7:26 PM EST
Astronomical Twilight 5:23 AM EST 7:58 PM EST
Moon 3:52 AM EST (3/7) 2:15 PM EST (3/7)
Length of Visible Light 12h 28m
Length of Day
11h 34m
Waning Crescent, 20% of the Moon is Illuminated
Mar 7
Waning Crescent
Mar 11
New
Mar 19
First Quarter
Mar 27
Full
Apr 3
Last Quarter

Hourly Weather History & Observations

Time (EST) Temp. Windchill Dew Point Humidity Pressure Visibility Wind Dir Wind Speed Gust Speed Precip Events Conditions
12:54 AM 33.1 °F 30.0 °F 28.0 °F 82% 30.19 in 7.0 mi WNW 3.5 mph - N/A   Overcast
1:54 AM 33.1 °F 28.7 °F 28.0 °F 82% 30.21 in 7.0 mi WNW 4.6 mph - N/A   Overcast
2:38 AM 33.8 °F 28.6 °F 26.6 °F 75% 30.19 in 7.0 mi WNW 5.8 mph - N/A   Overcast
2:54 AM 33.1 °F 27.7 °F 27.0 °F 78% 30.21 in 7.0 mi WNW 5.8 mph - N/A   Overcast
3:02 AM 33.8 °F 27.7 °F 26.6 °F 75% 30.19 in 7.0 mi NW 6.9 mph - N/A   Overcast
3:54 AM 32.0 °F 26.4 °F 27.0 °F 82% 30.21 in 7.0 mi NW 5.8 mph - N/A   Overcast
4:54 AM 32.0 °F 28.7 °F 27.0 °F 82% 30.23 in 7.0 mi WNW 3.5 mph - N/A   Overcast
5:54 AM 32.0 °F 28.7 °F 27.0 °F 82% 30.24 in 7.0 mi West 3.5 mph - N/A   Overcast
6:54 AM 32.0 °F 27.5 °F 27.0 °F 82% 30.27 in 7.0 mi West 4.6 mph - N/A   Overcast
7:54 AM 33.1 °F 30.0 °F 27.0 °F 78% 30.29 in 5.0 mi WNW 3.5 mph - N/A   Haze
8:54 AM 33.1 °F 26.9 °F 27.0 °F 78% 30.30 in 6.0 mi WNW 6.9 mph - N/A   Haze
9:54 AM 36.0 °F 30.3 °F 28.0 °F 73% 30.30 in 6.0 mi WNW 6.9 mph - N/A   Haze
10:54 AM 39.0 °F 33.4 °F 28.9 °F 67% 30.30 in 7.0 mi West 8.1 mph - N/A   Scattered Clouds
11:27 AM 37.4 °F 30.8 °F 26.6 °F 65% 30.29 in 10.0 mi NNW 9.2 mph - N/A   Mostly Cloudy
11:54 AM 39.0 °F 32.8 °F 28.9 °F 67% 30.32 in 10.0 mi NW 9.2 mph - N/A   Overcast
12:54 PM 39.0 °F 32.3 °F 28.0 °F 65% 30.31 in 10.0 mi WNW 10.4 mph - N/A   Overcast
1:06 PM 39.2 °F 33.0 °F 28.4 °F 65% 30.28 in 10.0 mi NW 9.2 mph - N/A   Overcast
1:54 PM 41.0 °F 36.4 °F 28.9 °F 62% 30.29 in 10.0 mi WNW 6.9 mph - N/A   Overcast
2:54 PM 41.0 °F 35.2 °F 28.0 °F 60% 30.28 in 10.0 mi West 9.2 mph - N/A   Overcast
3:54 PM 42.1 °F 35.2 °F 30.0 °F 62% 30.29 in 10.0 mi West 12.7 mph - N/A   Mostly Cloudy
4:54 PM 41.0 °F 35.2 °F 28.9 °F 62% 30.30 in 10.0 mi West 9.2 mph - N/A   Overcast
5:54 PM 39.0 °F 32.8 °F 28.9 °F 67% 30.32 in 10.0 mi NW 9.2 mph - N/A   Overcast
6:54 PM 37.0 °F 29.8 °F 28.0 °F 70% 30.32 in 10.0 mi NW 10.4 mph - N/A   Overcast
7:54 PM 37.0 °F 31.6 °F 28.9 °F 73% 30.34 in 10.0 mi NNW 6.9 mph - N/A   Overcast
8:36 PM 37.4 °F 32.8 °F 28.4 °F 70% 30.33 in 10.0 mi NNW 5.8 mph - N/A   Overcast
8:54 PM 37.0 °F 32.4 °F 28.9 °F 73% 30.35 in 10.0 mi NNW 5.8 mph - N/A   Overcast
9:02 PM 35.6 °F 31.7 °F 28.4 °F 75% 30.33 in 10.0 mi NW 4.6 mph - N/A   Overcast
9:12 PM 35.6 °F 31.7 °F 28.4 °F 75% 30.33 in 10.0 mi NNW 4.6 mph - N/A   Overcast
9:54 PM 36.0 °F 31.1 °F 28.9 °F 76% 30.35 in 10.0 mi NNW 5.8 mph - N/A   Overcast
10:14 PM 35.6 °F 30.7 °F 28.4 °F 75% 30.33 in 10.0 mi NNW 5.8 mph - N/A   Overcast
10:54 PM 36.0 °F 31.1 °F 28.9 °F 76% 30.35 in 10.0 mi NNW 5.8 mph - N/A   Overcast
11:54 PM 35.1 °F 30.1 °F 28.0 °F 76% 30.35 in 10.0 mi North 5.8 mph - N/A   Overcast